EW0890 Weather Reports


Display with metric or nautical units.
time (UTC)temp
F
wind
direction
speed
MPH
gust
MPH
rain 1hr
in
rain 24hr
in
rain mn
in
humidity
%
barometer
mb
20260901222511 94 262 0.0 3.0 0.00 0.00 0.00 64 1015.3
20260901222011 94 273 0.0 3.0 0.00 0.00 0.00 62 1015.3
20260901221608 94 255 0.0 2.0 0.00 0.00 0.00 61 1015.4
20260901221528 94 285 0.0 2.0 0.00 0.00 0.00 60 1015.2
20260901221016 94 278 0.0 2.0 0.00 0.00 0.00 61 1015.2
20260901220503 93 285 1.0 3.0 0.00 0.00 0.00 58 1015.2
20260901220121 93 307 1.0 3.0 0.00 0.00 0.00 60 1015.4
20260901220009 93 273 1.0 3.0 0.00 0.00 0.00 60 1015.3
20260901215505 93 246 1.0 3.0 0.00 0.00 0.00 61 1015.2
20260901215007 93 200 1.0 3.0 0.00 0.00 0.00 61 1015.1
20260901214603 93 0 1.0 3.0 0.00 0.00 0.00 60 1015.3
20260901214516 93 248 1.0 3.0 0.00 0.00 0.00 61 1015.1
20260901214008 93 281 1.0 3.0 0.00 0.00 0.00 58 1015.1
20260901213508 93 269 1.0 3.0 0.00 0.00 0.00 60 1015.2
20260901213114 93 271 1.0 4.0 0.00 0.00 0.00 61 1015.3
20260901213031 93 254 1.0 4.0 0.00 0.00 0.00 61 1015.2
20260901212511 93 297 2.0 4.0 0.00 0.00 0.00 61 1015.2
20260901212012 93 286 1.0 4.0 0.00 0.00 0.00 61 1015.2
20260901211604 93 263 2.0 5.0 0.00 0.00 0.00 59 1015.4
20260901211528 93 242 2.0 5.0 0.00 0.00 0.00 58 1015.2
20260901211015 93 246 2.0 5.0 0.00 0.00 0.00 60 1015.2
20260901210515 93 270 1.0 5.0 0.00 0.00 0.00 63 1015.2
20260901210109 93 286 2.0 5.0 0.00 0.00 0.00 61 1015.5
20260901210038 93 288 2.0 5.0 0.00 0.00 0.00 61 1015.3
20260901205517 93 277 1.0 4.0 0.00 0.00 0.00 63 1015.3
20260901205002 93 283 2.0 4.0 0.00 0.00 0.00 59 1015.3
20260901204605 93 285 2.0 4.0 0.00 0.00 0.00 60 1015.5
20260901204515 93 306 2.0 4.0 0.00 0.00 0.00 61 1015.3
20260901204006 93 273 2.0 4.0 0.00 0.00 0.00 60 1015.3
20260901203507 93 287 2.0 5.0 0.00 0.00 0.00 62 1015.4
20260901203106 93 295 2.0 5.0 0.00 0.00 0.00 64 1015.5
20260901203019 93 275 2.0 5.0 0.00 0.00 0.00 63 1015.3
20260901202509 93 276 2.0 5.0 0.00 0.00 0.00 61 1015.4
20260901202009 93 281 2.0 5.0 0.00 0.00 0.00 62 1015.3
20260901201605 93 285 2.0 5.0 0.00 0.00 0.00 60 1015.5
20260901201522 93 284 2.0 5.0 0.00 0.00 0.00 59 1015.3
20260901201011 93 268 2.0 4.0 0.00 0.00 0.00 61 1015.3
20260901200512 93 291 1.0 4.0 0.00 0.00 0.00 60 1015.3
20260901200104 93 276 2.0 5.0 0.00 0.00 0.00 62 1015.6
20260901200041 93 282 2.0 5.0 0.00 0.00 0.00 62 1015.5
20260901195512 93 288 2.0 5.0 0.00 0.00 0.00 61 1015.6
20260901195013 93 260 3.0 5.0 0.00 0.00 0.00 60 1015.6
20260901194607 93 303 3.0 5.0 0.00 0.00 0.00 62 1015.7
20260901194542 93 309 3.0 5.0 0.00 0.00 0.00 60 1015.6
20260901194016 93 269 2.0 8.0 0.00 0.00 0.00 63 1015.6
20260901193507 93 290 2.0 8.0 0.00 0.00 0.00 62 1015.6
20260901193116 93 193 2.0 6.0 0.00 0.00 0.00 63 1015.8
20260901193011 93 277 2.0 6.0 0.00 0.00 0.00 61 1015.7
20260901192505 93 280 3.0 6.0 0.00 0.00 0.00 62 1015.7
20260901192009 93 284 2.0 6.0 0.00 0.00 0.00 63 1015.8
20260901191607 93 299 2.0 6.0 0.00 0.00 0.00 60 1015.9
20260901191528 93 285 3.0 6.0 0.00 0.00 0.00 62 1015.8
20260901191012 93 301 2.0 5.0 0.00 0.00 0.00 62 1015.8
20260901190509 92 290 3.0 5.0 0.00 0.00 0.00 63 1015.8
20260901190023 92 288 2.0 6.0 0.00 0.00 0.00 63 1015.8
20260901185516 92 277 3.0 6.0 0.00 0.00 0.00 62 1015.9
20260901185011 92 304 2.0 5.0 0.00 0.00 0.00 63 1016.0
20260901184603 92 221 2.0 5.0 0.00 0.00 0.00 66 1016.2
20260901184529 92 259 2.0 5.0 0.00 0.00 0.00 66 1015.9
20260901184017 92 219 2.0 5.0 0.00 0.00 0.00 63 1015.9
20260901183518 92 284 3.0 6.0 0.00 0.00 0.00 63 1015.9
20260901183103 92 276 3.0 6.0 0.00 0.00 0.00 65 1016.2
20260901183030 92 271 3.0 6.0 0.00 0.00 0.00 65 1015.9
20260901182515 91 288 4.0 6.0 0.00 0.00 0.00 64 1016.0
20260901182003 91 294 2.0 8.0 0.00 0.00 0.00 66 1016.1
20260901181603 91 288 4.0 8.0 0.00 0.00 0.00 65 1016.2
20260901181518 91 274 4.0 8.0 0.00 0.00 0.00 63 1016.1
20260901181008 91 266 3.0 7.0 0.00 0.00 0.00 65 1016.2
20260901180511 91 283 3.0 7.0 0.00 0.00 0.00 66 1016.1
20260901180030 91 252 5.0 7.0 0.00 0.00 0.00 63 1016.1
20260901175513 91 274 4.0 7.0 0.00 0.00 0.00 63 1016.1
20260901175011 91 261 3.0 5.0 0.00 0.00 0.00 65 1016.3
20260901174605 91 292 2.0 4.0 0.00 0.00 0.00 67 1016.4
20260901174528 91 278 3.0 4.0 0.00 0.00 0.00 67 1016.4
20260901174017 91 260 2.0 5.0 0.00 0.00 0.00 67 1016.3
20260901173504 91 281 3.0 5.0 0.00 0.00 0.00 65 1016.4
20260901173102 90 183 3.0 7.0 0.00 0.00 0.00 66 1016.6
20260901173006 90 282 3.0 7.0 0.00 0.00 0.00 66 1016.4
20260901172504 90 285 3.0 7.0 0.00 0.00 0.00 68 1016.4
20260901172004 90 264 2.0 6.0 0.00 0.00 0.00 69 1016.3
20260901171605 90 289 3.0 7.0 0.00 0.00 0.00 68 1016.4
20260901171510 90 298 3.0 7.0 0.00 0.00 0.00 67 1016.3
20260901171004 89 234 3.0 8.0 0.00 0.00 0.00 67 1016.6
20260901170507 89 259 4.0 8.0 0.00 0.00 0.00 67 1016.5
20260901170121 89 256 4.0 7.0 0.00 0.00 0.00 67 1016.6
20260901170028 89 278 4.0 7.0 0.00 0.00 0.00 67 1016.4
20260901165507 89 296 3.0 6.0 0.00 0.00 0.00 69 1016.5
20260901165015 89 241 4.0 6.0 0.00 0.00 0.00 68 1016.6
20260901164607 89 308 3.0 6.0 0.00 0.00 0.00 69 1016.5
20260901164523 88 228 3.0 6.0 0.00 0.00 0.00 69 1016.6
20260901164013 88 244 3.0 6.0 0.00 0.00 0.00 70 1016.5
20260901163513 88 286 3.0 6.0 0.00 0.00 0.00 70 1016.6
20260901163108 88 296 3.0 6.0 0.00 0.00 0.00 71 1016.5
20260901163027 88 228 3.0 6.0 0.00 0.00 0.00 70 1016.6
20260901162512 88 286 3.0 5.0 0.00 0.00 0.00 71 1016.7
20260901162004 87 288 2.0 5.0 0.00 0.00 0.00 69 1016.6
20260901161602 87 275 3.0 5.0 0.00 0.00 0.00 69 1016.7
20260901161508 87 295 3.0 5.0 0.00 0.00 0.00 71 1016.7
20260901161004 87 292 3.0 5.0 0.00 0.00 0.00 69 1016.7
20260901160508 87 292 2.0 6.0 0.00 0.00 0.00 71 1016.7
20260901160017 87 290 3.0 6.0 0.00 0.00 0.00 71 1016.7
20260901155507 86 288 2.0 6.0 0.00 0.00 0.00 72 1016.6
20260901155008 86 238 3.0 6.0 0.00 0.00 0.00 73 1016.6
20260901154640 86 282 3.0 8.0 0.00 0.00 0.00 73 1016.6
20260901154519 86 264 3.0 8.0 0.00 0.00 0.00 73 1016.7
20260901154008 85 266 4.0 8.0 0.00 0.00 0.00 70 1016.7
20260901153508 85 219 4.0 8.0 0.00 0.00 0.00 71 1016.6
20260901153117 85 288 4.0 8.0 0.00 0.00 0.00 71 1016.6
20260901153027 85 286 4.0 8.0 0.00 0.00 0.00 73 1016.5
20260901152511 85 285 3.0 7.0 0.00 0.00 0.00 74 1016.6
20260901152014 85 249 3.0 6.0 0.00 0.00 0.00 73 1016.6
20260901151605 85 249 3.0 8.0 0.00 0.00 0.00 73 1016.5
20260901151529 84 263 3.0 8.0 0.00 0.00 0.00 74 1016.4
20260901151013 84 267 4.0 8.0 0.00 0.00 0.00 73 1016.5
20260901150506 84 274 3.0 8.0 0.00 0.00 0.00 74 1016.4
20260901150111 84 275 4.0 8.0 0.00 0.00 0.00 74 1016.5
20260901150009 84 307 4.0 8.0 0.00 0.00 0.00 75 1016.5
20260901145504 83 261 4.0 8.0 0.00 0.00 0.00 74 1016.5
20260901145006 83 295 4.0 8.0 0.00 0.00 0.00 74 1016.5
20260901144603 83 288 5.0 8.0 0.00 0.00 0.00 74 1016.5
20260901144515 83 294 5.0 8.0 0.00 0.00 0.00 74 1016.4
20260901144007 83 200 4.0 8.0 0.00 0.00 0.00 76 1016.5
20260901143508 82 299 6.0 8.0 0.00 0.00 0.00 74 1016.4
20260901143106 82 280 3.0 7.0 0.00 0.00 0.00 77 1016.4
20260901143023 82 257 3.0 7.0 0.00 0.00 0.00 76 1016.5
20260901142511 82 283 4.0 7.0 0.00 0.00 0.00 77 1016.5
20260901142013 81 289 5.0 9.0 0.00 0.00 0.00 76 1016.5
20260901141603 81 278 5.0 9.0 0.00 0.00 0.00 77 1016.4
20260901141536 81 303 5.0 9.0 0.00 0.00 0.00 76 1016.4
20260901141014 81 285 3.0 7.0 0.00 0.00 0.00 78 1016.5
20260901140512 81 269 4.0 8.0 0.00 0.00 0.00 77 1016.4
20260901140109 80 250 3.0 9.0 0.00 0.00 0.00 78 1016.5
20260901140031 80 290 3.0 9.0 0.00 0.00 0.00 79 1016.5
20260901135519 80 301 5.0 9.0 0.00 0.00 0.00 77 1016.5
20260901135002 80 290 4.0 9.0 0.00 0.00 0.00 77 1016.5
20260901134608 80 291 4.0 6.0 0.00 0.00 0.00 78 1016.5
20260901134513 80 301 4.0 6.0 0.00 0.00 0.00 78 1016.5
20260901134003 80 273 2.0 5.0 0.00 0.00 0.00 79 1016.6
20260901133505 80 308 3.0 5.0 0.00 0.00 0.00 79 1016.5
20260901133112 80 252 2.0 6.0 0.00 0.00 0.00 81 1016.4
20260901133015 79 286 2.0 6.0 0.00 0.00 0.00 81 1016.4
20260901132509 79 226 2.0 6.0 0.00 0.00 0.00 80 1016.4
20260901132011 79 281 2.0 4.0 0.00 0.00 0.00 81 1016.4
20260901131603 79 265 2.0 5.0 0.00 0.00 0.00 81 1016.3
20260901131531 78 276 3.0 5.0 0.00 0.00 0.00 81 1016.4
20260901131011 78 268 3.0 5.0 0.00 0.00 0.00 81 1016.4
20260901130515 78 289 2.0 5.0 0.00 0.00 0.00 82 1016.3
20260901130029 78 289 2.0 5.0 0.00 0.00 0.00 82 1016.2
20260901125514 77 307 3.0 5.0 0.00 0.00 0.00 82 1016.2
20260901125016 77 292 2.0 6.0 0.00 0.00 0.00 83 1016.2
20260901124606 77 245 3.0 6.0 0.00 0.00 0.00 83 1016.3
20260901124533 77 294 3.0 6.0 0.00 0.00 0.00 83 1016.3
20260901124021 77 279 2.0 5.0 0.00 0.00 0.00 83 1016.3
20260901123504 76 278 2.0 6.0 0.00 0.00 0.00 83 1016.2
20260901123119 76 263 2.0 6.0 0.00 0.00 0.00 84 1016.2
20260901123014 76 290 2.0 6.0 0.00 0.00 0.00 84 1016.2
20260901122506 76 279 3.0 6.0 0.00 0.00 0.00 84 1016.2
20260901122007 76 264 2.0 6.0 0.00 0.00 0.00 84 1016.1
20260901121607 75 291 3.0 5.0 0.00 0.00 0.00 84 1016.1
20260901121524 75 250 3.0 5.0 0.00 0.00 0.00 84 1016.2
20260901121011 75 255 2.0 6.0 0.00 0.00 0.00 85 1016.0
20260901120511 75 223 3.0 6.0 0.00 0.00 0.00 86 1015.9
20260901120118 74 300 2.0 6.0 0.00 0.00 0.00 86 1015.9
20260901120027 74 266 2.0 6.0 0.00 0.00 0.00 86 1015.9
20260901115516 74 267 2.0 6.0 0.00 0.00 0.00 87 1015.9
20260901115014 74 279 2.0 4.0 0.00 0.00 0.00 88 1015.9
20260901114602 73 278 2.0 4.0 0.00 0.00 0.00 88 1015.8
20260901114531 73 296 2.0 4.0 0.00 0.00 0.00 88 1015.9
20260901114016 73 281 1.0 4.0 0.00 0.00 0.00 88 1015.8
20260901113515 73 285 1.0 4.0 0.00 0.00 0.00 89 1015.7
20260901113118 73 283 2.0 3.0 0.00 0.00 0.00 89 1015.7
20260901113033 73 288 2.0 3.0 0.00 0.00 0.00 89 1015.6
20260901112516 72 252 2.0 4.0 0.00 0.00 0.00 90 1015.6
20260901112011 72 278 1.0 4.0 0.00 0.00 0.00 90 1015.6
20260901111606 72 260 1.0 4.0 0.00 0.00 0.00 90 1015.6
20260901111518 72 291 1.0 4.0 0.00 0.00 0.00 90 1015.5
20260901111006 72 284 1.0 3.0 0.00 0.00 0.00 90 1015.4
20260901110510 72 253 1.0 3.0 0.00 0.00 0.00 90 1015.3
20260901110108 72 262 1.0 3.0 0.00 0.00 0.00 90 1015.5
20260901110026 72 264 1.0 3.0 0.00 0.00 0.00 90 1015.4
20260901105509 72 252 1.0 3.0 0.00 0.00 0.00 90 1015.4
20260901105014 72 297 1.0 3.0 0.00 0.00 0.00 91 1015.4
20260901104600 72 288 1.0 3.0 0.00 0.00 0.00 91 1015.4
20260901104530 72 299 1.0 3.0 0.00 0.00 0.00 91 1015.3
20260901104016 72 276 1.0 3.0 0.00 0.00 0.00 91 1015.3
20260901103516 72 260 1.0 2.0 0.00 0.00 0.00 90 1015.4
20260901103109 72 278 1.0 3.0 0.00 0.00 0.00 90 1015.4
20260901103032 72 263 1.0 3.0 0.00 0.00 0.00 90 1015.5
20260901102517 72 301 1.0 3.0 0.00 0.00 0.00 90 1015.4
20260901102015 73 278 0.0 2.0 0.00 0.00 0.00 89 1015.4
20260901101603 73 289 0.0 3.0 0.00 0.00 0.00 89 1015.5
20260901101531 73 286 0.0 3.0 0.00 0.00 0.00 88 1015.4
20260901101020 73 259 1.0 3.0 0.00 0.00 0.00 88 1015.5
20260901100508 73 258 1.0 3.0 0.00 0.00 0.00 88 1015.5
20260901100108 73 259 1.0 3.0 0.00 0.00 0.00 89 1015.5
20260901100027 73 240 1.0 3.0 0.00 0.00 0.00 89 1015.4
20260901095517 73 264 1.0 3.0 0.00 0.00 0.00 89 1015.4
20260901095012 73 284 1.0 3.0 0.00 0.00 0.00 89 1015.4
20260901094601 73 258 1.0 4.0 0.00 0.00 0.00 89 1015.3
20260901094526 73 295 1.0 3.0 0.00 0.00 0.00 89 1015.3
20260901094015 73 257 1.0 4.0 0.00 0.00 0.00 88 1015.2
20260901093514 73 272 1.0 5.0 0.00 0.00 0.00 88 1015.2
20260901093106 73 284 1.0 5.0 0.00 0.00 0.00 88 1015.2
20260901093031 73 267 1.0 5.0 0.00 0.00 0.00 88 1015.2
20260901092518 73 264 1.0 3.0 0.00 0.00 0.00 88 1015.2
20260901092019 73 292 1.0 3.0 0.00 0.00 0.00 88 1015.2
20260901091606 73 289 1.0 3.0 0.00 0.00 0.00 88 1015.3
20260901091532 74 274 1.0 3.0 0.00 0.00 0.00 87 1015.2
20260901091018 74 256 1.0 3.0 0.00 0.00 0.00 87 1015.2
20260901090518 74 278 1.0 4.0 0.00 0.00 0.00 87 1015.2
20260901090104 74 275 1.0 4.0 0.00 0.00 0.00 87 1015.3
20260901090041 74 278 1.0 4.0 0.00 0.00 0.00 87 1015.2
20260901085507 74 249 1.0 3.0 0.00 0.00 0.00 87 1015.2
20260901085007 74 295 1.0 3.0 0.00 0.00 0.00 87 1015.2
20260901084604 74 270 1.0 3.0 0.00 0.00 0.00 87 1015.3
20260901084524 74 281 1.0 3.0 0.00 0.00 0.00 87 1015.2
20260901084011 74 300 1.0 3.0 0.00 0.00 0.00 87 1015.1
20260901083512 74 250 1.0 3.0 0.00 0.00 0.00 87 1015.2
20260901083101 74 277 1.0 3.0 0.00 0.00 0.00 87 1015.3
20260901083036 74 258 1.0 3.0 0.00 0.00 0.00 87 1015.2
20260901082515 74 283 1.0 3.0 0.00 0.00 0.00 87 1015.2
20260901082015 74 222 1.0 3.0 0.00 0.00 0.00 87 1015.3
20260901081603 74 274 1.0 3.0 0.00 0.00 0.00 87 1015.3
20260901081532 74 283 1.0 3.0 0.00 0.00 0.00 87 1015.2
20260901081013 74 312 1.0 3.0 0.00 0.00 0.00 87 1015.3
20260901080518 74 290 2.0 3.0 0.00 0.00 0.00 87 1015.2
20260901080112 74 288 2.0 3.0 0.00 0.00 0.00 87 1015.2
20260901080034 74 266 1.0 3.0 0.00 0.00 0.00 87 1015.2
20260901075519 74 281 2.0 3.0 0.00 0.00 0.00 87 1015.3
20260901075017 74 248 1.0 3.0 0.00 0.00 0.00 87 1015.2
20260901074602 74 278 2.0 3.0 0.00 0.00 0.00 88 1015.3
20260901074533 74 281 2.0 3.0 0.00 0.00 0.00 88 1015.2
20260901074008 74 257 1.0 3.0 0.00 0.00 0.00 88 1015.3
20260901073510 74 248 1.0 5.0 0.00 0.00 0.00 88 1015.2
20260901073105 74 289 2.0 5.0 0.00 0.00 0.00 88 1015.3
20260901073036 74 283 2.0 5.0 0.00 0.00 0.00 88 1015.2
20260901072516 74 256 1.0 3.0 0.00 0.00 0.00 88 1015.2
20260901072015 74 265 1.0 3.0 0.00 0.00 0.00 88 1015.2
20260901071605 74 271 1.0 3.0 0.00 0.00 0.00 88 1015.3
20260901071530 74 283 1.0 3.0 0.00 0.00 0.00 88 1015.2
20260901071005 74 284 1.0 5.0 0.00 0.00 0.00 88 1015.2
20260901070504 74 266 1.0 5.0 0.00 0.00 0.00 87 1015.2
20260901070104 74 242 1.0 5.0 0.00 0.00 0.00 87 1015.2
20260901070019 74 271 1.0 5.0 0.00 0.00 0.00 87 1015.2
20260901065506 74 289 1.0 3.0 0.00 0.00 0.00 87 1015.2
20260901065006 75 281 1.0 3.0 0.00 0.00 0.00 86 1015.2
20260901064605 75 309 1.0 3.0 0.00 0.00 0.00 86 1015.4
20260901064527 75 285 1.0 3.0 0.00 0.00 0.00 86 1015.3
20260901064010 75 276 1.0 4.0 0.00 0.00 0.00 86 1015.3
20260901063509 75 248 1.0 4.0 0.00 0.00 0.00 86 1015.3
20260901063115 75 277 1.0 3.0 0.00 0.00 0.00 86 1015.3
20260901063023 75 288 1.0 3.0 0.00 0.00 0.00 86 1015.2
20260901062012 75 302 2.0 3.0 0.00 0.00 0.00 85 1015.2
20260901061617 75 281 1.0 3.0 0.00 0.00 0.00 85 1015.3
20260901061529 75 285 1.0 3.0 0.00 0.00 0.00 85 1015.1
20260901061003 75 272 2.0 4.0 0.00 0.00 0.00 85 1015.1
20260901060503 76 270 1.0 4.0 0.00 0.00 0.00 84 1015.1
20260901060108 76 276 2.0 5.0 0.00 0.00 0.00 84 1015.2
20260901060011 76 289 2.0 5.0 0.00 0.00 0.00 84 1015.2
20260901055504 76 254 2.0 5.0 0.00 0.00 0.00 84 1015.2
20260901055003 76 262 2.0 6.0 0.00 0.00 0.00 84 1015.2
20260901054601 76 307 2.0 6.0 0.00 0.00 0.00 84 1015.2
20260901054511 76 280 2.0 6.0 0.00 0.00 0.00 84 1015.1
20260901054006 76 257 1.0 3.0 0.00 0.00 0.00 84 1015.1
20260901053508 76 265 1.0 4.0 0.00 0.00 0.00 84 1015.1
20260901053104 76 283 1.0 4.0 0.00 0.00 0.00 84 1015.2
20260901053019 76 316 1.0 4.0 0.00 0.00 0.00 84 1015.1
20260901052509 76 302 2.0 4.0 0.00 0.00 0.00 84 1015.0
20260901052009 76 263 2.0 4.0 0.00 0.00 0.00 84 1015.1
20260901051619 76 311 1.0 4.0 0.00 0.00 0.00 84 1015.2
20260901051526 76 281 1.0 4.0 0.00 0.00 0.00 83 1015.1
20260901051012 76 265 1.0 3.0 0.00 0.00 0.00 83 1015.1
20260901050513 76 272 1.0 4.0 0.00 0.00 0.00 83 1015.2
20260901050109 76 272 1.0 4.0 0.00 0.00 0.00 83 1015.3
20260901050029 76 288 1.0 4.0 0.00 0.00 0.00 83 1015.2
20260901045502 76 272 1.0 5.0 0.00 0.00 0.00 83 1015.2
20260901045003 77 277 1.0 5.0 0.00 0.00 0.00 83 1015.2
20260901044603 77 233 1.0 4.0 0.00 0.00 0.00 82 1015.3
20260901044510 77 271 1.0 4.0 0.00 0.00 0.00 82 1015.2
20260901044004 77 279 1.0 4.0 0.00 0.00 0.00 82 1015.2
20260901043506 77 265 1.0 3.0 0.00 0.00 0.00 82 1015.2
20260901043103 77 285 1.0 3.0 0.00 0.00 0.00 82 1015.4
20260901043015 77 260 1.0 3.0 0.00 0.00 0.00 82 1015.2
20260901042509 77 267 1.0 4.0 0.00 0.00 0.00 82 1015.3
20260901042007 77 248 1.0 4.0 0.00 0.00 0.00 81 1015.2
20260901041605 77 291 1.0 4.0 0.00 0.00 0.00 81 1015.4
20260901041525 77 274 2.0 4.0 0.00 0.00 0.00 81 1015.3
20260901041011 77 316 2.0 3.0 0.00 0.00 0.00 81 1015.3
20260901040511 77 266 1.0 3.0 0.00 0.00 0.00 81 1015.3
20260901040105 78 202 1.0 3.0 0.00 0.00 0.00 81 1015.4
20260901040033 78 210 1.0 3.0 0.00 0.00 0.00 81 1015.2
20260901035512 77 294 1.0 3.0 0.00 0.00 0.00 81 1015.3
20260901035011 77 255 1.0 3.0 0.00 0.00 0.00 81 1015.3
20260901034609 77 274 1.0 3.0 0.00 0.00 0.00 82 1015.5
20260901034535 77 294 1.0 3.0 0.00 0.00 0.00 82 1015.3
20260901034005 77 289 1.0 3.0 0.00 0.00 0.00 82 1015.4
20260901033503 77 335 1.0 3.0 0.00 0.00 0.00 83 1015.4
20260901033114 76 255 1.0 3.0 0.00 0.00 0.00 84 1015.5
20260901033012 76 269 1.0 3.0 0.00 0.00 0.00 84 1015.4
20260901032503 76 256 1.0 3.0 0.00 0.00 0.00 85 1015.4
20260901032009 76 276 0.0 3.0 0.00 0.00 0.00 86 1015.4
20260901031604 76 309 1.0 2.0 0.00 0.00 0.00 86 1015.4
20260901031540 76 276 1.0 2.0 0.00 0.00 0.00 86 1015.3
20260901031008 76 281 0.0 2.0 0.00 0.00 0.00 87 1015.4
20260901030509 75 148 0.0 2.0 0.00 0.00 0.00 87 1015.4
20260901030105 75 0 0.0 1.0 0.00 0.00 0.00 87 1015.5
20260901030024 75 240 0.0 1.0 0.00 0.00 0.00 87 1015.4
20260901025511 75 277 0.0 1.0 0.00 0.00 0.00 87 1015.3
20260901025012 75 273 0.0 1.0 0.00 0.00 0.00 87 1015.4
20260901024608 75 0 0.0 1.0 0.00 0.00 0.00 88 1015.5
20260901024530 75 273 0.0 1.0 0.00 0.00 0.00 88 1015.4
20260901024016 75 274 0.0 1.0 0.00 0.00 0.00 87 1015.4
20260901023521 75 278 0.0 0.0 0.00 0.00 0.00 87 1015.4
20260901023102 75 0 0.0 0.0 0.00 0.00 0.00 87 1015.5
20260901023037 75 279 0.0 0.0 0.00 0.00 0.00 87 1015.4
20260901022503 76 265 0.0 0.0 0.00 0.00 0.00 87 1015.4
20260901022003 76 265 0.0 0.0 0.00 0.00 0.00 87 1015.3
20260901021606 76 0 0.0 0.0 0.00 0.00 0.00 87 1015.3
20260901021512 76 265 0.0 0.0 0.00 0.00 0.00 87 1015.3
20260901021005 76 264 0.0 0.0 0.00 0.00 0.00 87 1015.3
20260901020509 76 264 0.0 0.0 0.00 0.00 0.00 86 1015.2
20260901020057 76 0 0.0 0.0 0.00 0.00 0.00 86 1015.3
20260901020016 76 264 0.0 0.0 0.00 0.00 0.00 86 1015.3
20260901015507 77 264 0.0 0.0 0.00 0.00 0.00 86 1015.3
20260901015016 77 269 0.0 0.0 0.00 0.00 0.00 86 1015.2
20260901014609 77 0 0.0 1.0 0.00 0.00 0.00 86 1015.2
20260901014524 77 269 0.0 1.0 0.00 0.00 0.00 86 1015.1
20260901014015 77 269 0.0 1.0 0.00 0.00 0.00 86 1015.1
20260901013514 77 294 0.0 1.0 0.00 0.00 0.00 86 1015.0
20260901013101 77 0 0.0 0.0 0.00 0.00 0.00 86 1015.0
20260901013031 77 269 0.0 0.0 0.00 0.00 0.00 86 1014.9
20260901012514 77 271 0.0 0.0 0.00 0.00 0.00 86 1014.8
20260901012018 77 271 0.0 0.0 0.00 0.00 0.00 86 1014.7
20260901011558 77 0 0.0 0.0 0.00 0.00 0.00 86 1014.8
20260901011532 77 270 0.0 0.0 0.00 0.00 0.00 86 1014.5
20260901011004 77 270 0.0 0.0 0.00 0.00 0.00 85 1014.5
20260901010503 78 276 0.0 0.0 0.00 0.00 0.00 85 1014.5
20260901010104 78 0 0.0 0.0 0.00 0.00 0.00 85 1014.7
20260901010029 78 275 0.0 0.0 0.00 0.00 0.00 85 1014.4
20260901005505 78 275 0.0 0.0 0.00 0.00 0.00 84 1014.4
20260901005011 79 275 0.0 0.0 0.00 0.00 0.00 83 1014.3
20260901004618 79 0 0.0 0.0 0.00 0.00 0.00 82 1014.5
20260901004524 79 275 0.0 0.0 0.00 0.00 0.00 81 1014.3
20260901004008 80 275 0.0 0.0 0.00 0.00 0.00 81 1014.3
20260901003512 80 275 0.0 0.0 0.00 0.00 0.00 79 1014.2
20260901003107 81 0 0.0 0.0 0.00 0.00 0.00 79 1014.4
20260901003027 81 275 0.0 0.0 0.00 0.00 0.00 78 1014.2
20260901002512 82 275 0.0 0.0 0.00 0.00 0.00 77 1014.3
20260901002017 82 275 0.0 0.0 0.00 0.00 0.00 76 1014.3
20260901001604 82 0 0.0 0.0 0.00 0.00 0.00 75 1014.3
20260901001530 82 275 0.0 0.0 0.00 0.00 0.00 75 1014.2
20260901001015 83 275 0.0 0.0 0.00 0.00 0.00 74 1014.1
20260901000521 84 275 0.0 0.0 0.00 0.00 0.00 73 1014.0
20260901000110 84 0 0.0 0.0 0.00 0.00 0.00 72 1014.1
20260901000033 84 277 0.0 0.0 0.00 0.00 0.00 72 1014.0
20260831235507 85 277 0.0 1.0 0.00 0.00 0.00 71 1013.8
20260831235007 86 278 0.0 1.0 0.00 0.00 0.00 71 1014.0
20260831234608 86 276 1.0 3.0 0.00 0.00 0.00 70 1014.0
20260831234518 86 276 1.0 3.0 0.00 0.00 0.00 70 1014.0
20260831234006 86 286 1.0 3.0 0.00 0.00 0.00 70 1013.9
20260831233508 87 285 1.0 2.0 0.00 0.00 0.00 69 1013.9
20260831233105 87 258 1.0 2.0 0.00 0.00 0.00 68 1013.9
20260831233024 87 281 1.0 2.0 0.00 0.00 0.00 68 1013.7
20260831232510 88 302 1.0 2.0 0.00 0.00 0.00 68 1013.9
20260831232014 88 279 1.0 3.0 0.00 0.00 0.00 67 1013.8
20260831231611 89 224 1.0 3.0 0.00 0.00 0.00 66 1013.8
20260831231536 89 299 1.0 3.0 0.00 0.00 0.00 66 1013.7
20260831231016 89 281 0.0 3.0 0.00 0.00 0.00 66 1013.6
20260831230515 89 295 1.0 3.0 0.00 0.00 0.00 66 1013.9
20260831230110 89 271 1.0 3.0 0.00 0.00 0.00 65 1014.0
20260831230038 89 254 1.0 3.0 0.00 0.00 0.00 66 1013.8
20260831225515 89 283 1.0 2.0 0.00 0.00 0.00 65 1013.6
20260831225018 89 279 1.0 3.0 0.00 0.00 0.00 65 1013.7
20260831224605 89 257 1.0 4.0 0.00 0.00 0.00 65 1013.9
20260831224512 89 233 1.0 4.0 0.00 0.00 0.00 65 1013.6
20260831224005 90 113 1.0 5.0 0.00 0.00 0.00 65 1013.5
20260831223507 90 297 1.0 5.0 0.00 0.00 0.00 64 1013.5
20260831223110 90 285 1.0 4.0 0.00 0.00 0.00 65 1013.7
20260831223020 90 292 1.0 4.0 0.00 0.00 0.00 64 1013.4